| time (UTC) | temp C | wind direction | speed KPH | gust KPH | rain 1hr cm | rain 24hr cm | rain mn cm | humidity % | barometer mb |
| 20260507051926 | 10 | 220 | 14.5 | 0.0 | 0.00 | 0.00 | 0.00 | 93 | |
| 20260507042129 | 10 | 240 | 19.3 | 0.0 | 0.00 | 0.00 | 0.00 | 93 | |
| 20260507031925 | 10 | 250 | 19.3 | 0.0 | 0.00 | 0.00 | 0.00 | 93 | |
| 20260507021923 | 11 | 240 | 19.3 | 0.0 | 0.00 | 0.00 | 0.00 | 87 | |
| 20260507012025 | 11 | 220 | 14.5 | 0.0 | 0.00 | 0.00 | 0.00 | 93 | |
| 20260507001926 | 11 | 210 | 8.0 | 0.0 | 0.00 | 0.00 | 0.00 | 87 | |
| 20260506231926 | 11 | 210 | 8.0 | 0.0 | 0.00 | 0.00 | 0.00 | 93 | |
| 20260506222126 | 11 | 20 | 11.3 | 0.0 | 0.00 | 0.00 | 0.00 | 93 | |
| 20260506211925 | 12 | 330 | 14.5 | 0.0 | 0.00 | 0.00 | 0.00 | 87 | |
| 20260506201958 | 12 | 20 | 8.0 | 0.0 | 0.00 | 0.00 | 0.00 | 76 | |
| 20260506192117 | 12 | 30 | 11.3 | 0.0 | 0.00 | 0.00 | 0.00 | 82 | |
| 20260506182026 | 13 | 20 | 19.3 | 0.0 | 0.00 | 0.00 | 0.00 | 71 | |
| 20260506171925 | 17 | 360 | 19.3 | 0.0 | 0.00 | 0.00 | 0.00 | 63 | |
| 20260506162141 | 18 | 0 | 3.2 | 0.0 | 0.00 | 0.00 | 0.00 | 55 | |
| 20260506151957 | 18 | 120 | 11.3 | 0.0 | 0.00 | 0.00 | 0.00 | 48 | |
| 20260506141942 | 20 | 130 | 11.3 | 0.0 | 0.00 | 0.00 | 0.00 | 42 | |
| 20260506131942 | 20 | 40 | 11.3 | 0.0 | 0.00 | 0.00 | 0.00 | 42 | |
| 20260506121941 | 20 | 0 | 8.0 | 0.0 | 0.00 | 0.00 | 0.00 | 45 | |
| 20260506111926 | 20 | 0 | 8.0 | 0.0 | 0.00 | 0.00 | 0.00 | 45 | |
| 20260506102128 | 17 | 0 | 3.2 | 0.0 | 0.00 | 0.00 | 0.00 | 55 | |
| 20260506091926 | 17 | 230 | 11.3 | 0.0 | 0.00 | 0.00 | 0.00 | 59 | |
| 20260506081925 | 16 | 280 | 14.5 | 0.0 | 0.00 | 0.00 | 0.00 | 63 | |
| 20260506071926 | 16 | 0 | 8.0 | 0.0 | 0.00 | 0.00 | 0.00 | 72 | |
| 20260506061928 | 13 | 260 | 14.5 | 0.0 | 0.00 | 0.00 | 0.00 | 76 |